Regional Weather Roundup
Issued by NWS

Home | Current Version | Previous Version | Text Only | Print | Product List | Glossary On
Versions: 1 2 3 4 5 6 7 8 9 10 11 12 13 14 15 16 17 18 19 20 21 22 23 24 25 26 27 28 29 30 31 32 33 34 35 36 37 38 39 40 41 42 43 44 45 46 47 48 49 50
000
ASUS43 KMPX 301010
RWRMN
WEATHER ROUNDUP FOR MINNESOTA
NATIONAL WEATHER SERVICE TWIN CITIES/CHANHASSEN MN
500 AM CDT TUE MAY 30 2017


NOTE: "FAIR" INDICATES FEW OR NO CLOUDS BELOW 12,000 FEET WITH NO
SIGNIFICANT WEATHER AND/OR OBSTRUCTIONS TO VISIBILITY. N/A MEANS
CURRENT SKY AND/OR WEATHER CONDITIONS ARE NOT AVAILABLE.

MNZ060>063-068>070-301100-
   Twin Cities Metro

CITY           SKY/WX    TMP DP  RH WIND       PRES   REMARKS
TWIN CITIES    CLOUDY    53  43  68 W13       29.87S
ST PAUL        CLOUDY    53  46  77 W10       29.87S
CRYSTAL        CLOUDY    52  43  71 W8        29.86R
BLAINE         MOCLDY    54  45  71 NW7       29.86R
LAKEVILLE      MOCLDY    52  45  76 W9        29.88S
EDEN PRAIRIE   CLOUDY    54  44  69 W13G18    29.87S
SOUTH ST PAUL  CLOUDY    54  44  70 W12G17    29.86S
LAKE ELMO      MOCLDY    52  46  82 W14G21    29.86S
$$
MNZ001>005-007-008-013>017-022>024-027-028-301100-
   Northwest Minnesota

CITY           SKY/WX    TMP DP  RH WIND       PRES   REMARKS
BEMIDJI        CLOUDY    42  40  96 NW13G18   29.85R FOG
HALLOCK        CLOUDY    45  43  93 N16       29.90S
ROSEAU         CLOUDY    43  37  81 NW14      29.85S
WARROAD        CLOUDY    43  39  87 W7        29.84S FOG
THIEF RVR FALL LGT RAIN  43  42  97 NW13      29.90
CROOKSTON      CLOUDY    45  45 100 N12       29.92R
FOSSTON        DRIZZLE   41  39  93 NW12      29.89R
DETROIT LAKES  LGT RAIN  45  43  93 NW12      29.91R
MOORHEAD       CLOUDY    46  43  87 NW10      29.94R
PARK RAPIDS    CLOUDY    45  40  82 NW12      29.86R
MAHNOMEN       CLOUDY    43  42  97 NW13      29.90R FOG
$$
MNZ006-009>011-018-025>026-301100-
   North Central Minnesota

CITY           SKY/WX    TMP DP  RH WIND       PRES   REMARKS
BAUDETTE       CLOUDY    44  43  96 W13       29.80S
FLAG ISLAND    CLOUDY    45  43  93 NW16      29.80S
INTL FALLS     CLOUDY    45  43  93 W7        29.77R
WASKISH        CLOUDY    43  41  93 W13G20    29.83R
BIG FORK       LGT RAIN  45  39  81 W3        29.81R
LONGVILLE      CLOUDY    43  41  93 W8        29.84R
GRAND RAPIDS   CLOUDY    44  40  85 NW12      29.83R
CRANE LAKE     DRIZZLE   43  43 100 W3        29.77S
ORR            CLOUDY    43  39  87 W7        29.75R
COOK           CLOUDY    43  41  93 W7        29.78R
WALKER         CLOUDY    41  40  96 W6        29.85S
$$
MNZ012-019>021-037-301100-
   Northeast Minnesota

CITY           SKY/WX    TMP DP  RH WIND       PRES   REMARKS
DULUTH         CLOUDY    45  43  93 W12       29.76S
ELY            CLOUDY    45  39  81 W10       29.74R
HIBBING        CLOUDY    43  39  86 W9        29.78R
EVELETH        CLOUDY    44  36  74 W9        29.78S
DULUTH HARBOR  CLOUDY    50  45  81 W13       29.79R
TWO HARBORS    CLOUDY    50  43  76 W5        29.73S
SILVER BAY     CLOUDY    46  41  81 W3        29.72R
GRAND MARAIS     N/A     47  41  80 SW12      29.69R
G MARAIS ARPRT CLOUDY    45  37  76 W7        29.69S
$$
MNZ029>031-032-039>041-046>048-054>057-064-301100-
   West Central Minnesota

CITY           SKY/WX    TMP DP  RH WIND       PRES   REMARKS
FERGUS FALLS   CLOUDY    46  43  87 N14       29.92R
WHEATON        CLOUDY    48  45  87 NW3       29.96R
MORRIS         CLOUDY    48  45  87 N9        29.92R
ALEXANDRIA     CLOUDY    47  43  86 NW14      29.91R
ELBOW LAKE     CLOUDY    47  44  90 W12       29.92S
WADENA         CLOUDY    45  43  93 NW8       29.88R
GLENWOOD       CLOUDY    48  45  87 W14       29.91R FOG
APPLETON       CLOUDY    54  45  71 W10       29.92S
BENSON         CLOUDY    54  45  71 N13       29.93S
ORTONVILLE     PTCLDY    52  43  71 NW10      29.94R
MADISON        PTCLDY    52  45  76 W9        29.95R
WILLMAR        CLOUDY    54  46  76 W10       29.92S
$$
MNZ033>034-036-042>043-049>051-058-059-301100-
   Central Minnesota

CITY           SKY/WX    TMP DP  RH WIND       PRES   REMARKS
ST CLOUD       CLOUDY    50  43  77 NW15G25   29.87R
SAUK CENTRE    CLOUDY    49  43  80 W14       29.89S
PAYNESVILLE    CLOUDY    51  44  77 W10       29.90R
AITKIN         CLOUDY    45  39  81 NW3       29.82S
PINE RIVER     CLOUDY    45  41  87 NW7       29.89R
BRAINERD       LGT RAIN  45  42  89 NW12      29.85R
STAPLES        CLOUDY    45  39  81 W10       29.87S
LONG PRAIRIE   CLOUDY    46  41  81 W13G18    29.89R
LITTLE FALLS   CLOUDY    46  39  76 W12       29.87R
LITCHFIELD     CLOUDY    54  46  76 W7        29.90S
BUFFALO        CLOUDY    51  44  75 W9        29.89R
MAPLE LAKE     CLOUDY    52  46  79 W5        29.89R
HUTCHINSON     CLOUDY    54  47  79 W10       29.91R
$$
MNZ037-044-045-052-053-301100-
   East Central Minnesota

CITY           SKY/WX    TMP DP  RH WIND       PRES   REMARKS
PRINCETON      CLOUDY    52  43  71 W8G17     29.86R
MORA           CLOUDY    48  41  76 W12G20    29.85R
CAMBRIDGE      CLOUDY    54  41  62 W9        29.83R
RUSH CITY      CLOUDY    50  42  74 NW7       29.84R
MOOSE LAKE     CLOUDY    45  41  87 W5        29.79S
HINCKLEY       DRIZZLE   46  45  93 NW8       29.83R
CLOQUET        CLOUDY    46  39  76 W9        29.78S
MCGREGOR       CLOUDY    43  41  93 NW10G16   29.82S
$$
MNZ071>073-080-081-089-090-097-098-301100-
   Southwest Minnesota

CITY           SKY/WX    TMP DP  RH WIND       PRES   REMARKS
MONTEVIDEO     CLOUDY    52  45  76 NW8       29.93S
CANBY          CLEAR     50  43  77 CALM      29.97R
MARSHALL       MOCLDY    51  44  77 W10       29.95R
REDWOOD FALLS  CLOUDY    52  42  69 W12       29.92S
OLIVIA         CLOUDY    50  45  81 W8        29.91S
PIPESTONE      CLOUDY    50  39  66 W5        29.98S
WINDOM         CLOUDY    52  45  76 W9        29.95S
WORTHINGTON    CLOUDY    50  44  80 W7        29.97F
JACKSON        CLOUDY    52  43  71 W7        29.96S
TRACY          CLOUDY    53  45  74 W6        29.95S
SLAYTON        CLOUDY    49  42  77 W8        29.98R
$$
MNZ065>067-074>077-082>085-091>093-301100-
   South Central Minnesota

CITY           SKY/WX    TMP DP  RH WIND       PRES   REMARKS
MANKATO        MOCLDY    49  45  86 W8        29.92S
NEW ULM        PTCLDY    46  43  87 W5        29.92S
ST JAMES       CLEAR     52  43  71 W9        29.94S
FAIRMONT       CLOUDY    53  44  71 W10       29.95S
GLENCOE        CLOUDY    54  48  81 W6        29.90S
FARIBAULT      CLOUDY    54  46  76 W9        29.90S
OWATONNA       MOCLDY    52  45  76 SW10      29.92R
WASECA         MOCLDY    46  45  93 SW7       29.93S
ALBERT LEA     CLOUDY    54  48  82 W3        29.93S
$$
MNZ078>079-086>088-094>096-301100-
   Southeast Minnesota

CITY           SKY/WX    TMP DP  RH WIND       PRES   REMARKS
ROCHESTER      CLOUDY    51  46  83 W13       29.91S
RED WING       CLOUDY    54  45  71 W10       29.86S
STANTON        CLOUDY    54  46  73 W8        29.88S
DODGE CENTER   CLOUDY    52  45  76 W10       29.91S
WINONA         CLOUDY    54  45  71 W5        29.89S
AUSTIN         MOCLDY    50  45  81 W6        29.93S
PRESTON        CLOUDY    50  45  81 W10       29.92S
$$
ABBREVIATIONS USED IN REMARKS
   TC - TEMPERATURES IN CELSIUS
  WCI - WIND CHILL INDEX
   HX - HEAT INDEX
  VSB - VISIBILITY
$$




USA.gov is the U.S. government's official web portal to all federal, state and local government web resources and services.